Overview Statistics Trail Chart Weather Telemetry Raw packets
 

This is the latest recevied weather packets stored in our database for station/object KO4ZGL-13. If no packets are shown the sender has not sent any weather packets the latest 10 day(s).

<< 93 94 95 96 97 98 99 >>
Time Temp. Humidity Pressure Rain* Wind** Luminosity Snow
1787948300 26.67° C 96% 1017.4 hPa 0 mm - 104 W/m² -
1787948000 26.67° C 96% 1017.4 hPa 0 mm - 96 W/m² -
1787947698 26.67° C 97% 1017.5 hPa 0 mm - 90 W/m² -
1787947393 26.67° C 97% 1017.5 hPa 0 mm - 81 W/m² -
1787947092 26.11° C 97% 1017.8 hPa 0 mm - 93 W/m² -
1787946791 26.11° C 97% 1017.7 hPa 0 mm - 105 W/m² -
1787946489 26.67° C 97% 1017.7 hPa 0 mm - 121 W/m² -
1787946185 26.67° C 97% 1018 hPa 0 mm - 113 W/m² -
1787945879 26.11° C 97% 1018.1 hPa 0 mm - 95 W/m² -
1787945575 26.11° C 96% 1017.9 hPa 0 mm - 86 W/m² -
1787945270 26.11° C 96% 1018 hPa 0 mm - 77 W/m² -
1787944970 26.67° C 96% 1017.9 hPa 0 mm - 81 W/m² -
1787944667 26.11° C 96% 1017.9 hPa 0 mm - 102 W/m² -
1787944363 26.67° C 96% 1018.2 hPa 0 mm - 126 W/m² -
1787944058 26.67° C 95% 1018 hPa 0 mm - 137 W/m² -
1787943753 26.67° C 96% 1018.1 hPa 0 mm - 139 W/m² -
1787943449 26.67° C 95% 1018.2 hPa 0 mm - 125 W/m² -
1787943143 26.67° C 95% 1017.9 hPa 0 mm - 100 W/m² -
1787942833 26.67° C 95% 1017.8 hPa 0 mm - 90 W/m² -
1787942529 26.67° C 95% 1018 hPa 0 mm - 90 W/m² -
1787942228 26.67° C 95% 1017.6 hPa 0 mm - 98 W/m² -
1787941923 26.67° C 95% 1018 hPa 0 mm - 115 W/m² -
1787941617 26.11° C 95% 1017.9 hPa 0 mm - 132 W/m² -
1787941317 26.11° C 95% 1018 hPa 0 mm - 150 W/m² -
1787941016 26.11° C 95% 1017.9 hPa 0 mm - 134 W/m² -

* Rain latest hour (hover to see other rain measurements)
** Current wind speed in m/s (hover to see current wind gust speed)